Location: Baumgartsau
(48.4586°N, 14.0864°E)
Time: 23:25:30
(UTC+00:00)

Cosmos 2366 rocket - Pass Details

Date: 09 April 2020
Orbit: 955 x 997 km, 82.9° (Epoch: 24 May)

Event Time Altitude Azimuth Distance (km) Brightness Sun altitude
Rises 19:35:42 0° 351° (N) 3,647 7.7 -17.3°
Reaches altitude 10° 19:38:13 10° 353° (N) 2,697 6.9 -17.6°
Maximum altitude 19:44:23 76° 80° (E) 990 3.9 -18.5°
Enters shadow 19:48:11 25° 163° (SSE) 1,839 5.0 -19.0°
